Location: Caltech
(34.1382°N, 118.1253°W)
Time: 18:42:54
(UTC-07:00)

BREEZE M DEB (TANK) - Visible Passes

Search period start: 21 April 2015 00:00
Search period end: 01 May 2015 00:00
Orbit: 325 x 13791 km, 49.5° (Epoch: 18 April)

Date Brightness Start Highest point End Pass type
(mag) Time Alt. Az. Time Alt. Az. Time Alt. Az.
21 Apr 9.0 04:35:20 11° W 06:47:14 64° N 07:15:55 10° E visible
21 Apr 9.2 21:47:23 24° ESE 22:01:21 28° ESE 23:39:44 10° NE visible
22 Apr 9.0 02:05:22 42° SW 03:23:12 80° NW 04:35:31 10° ENE visible
22 Apr 8.9 23:35:07 47° SSE 00:06:21 61° ESE 01:50:23 10° NE visible
23 Apr 9.2 03:53:01 15° WSW 05:59:49 64° N 06:35:13 10° E visible
23 Apr 9.2 21:04:31 17° ESE 21:18:48 21° E 22:51:49 10° NE visible
24 Apr 8.9 01:22:21 44° SSW 02:30:22 86° NW 03:53:44 10° ENE visible
24 Apr 8.7 22:51:15 41° SE 23:20:37 53° ESE 01:06:50 10° NE visible
25 Apr 9.3 03:08:56 18° WSW 05:10:19 66° NNW 05:54:08 10° ENE visible
25 Apr 9.2 20:20:06 10° ESE 20:36:39 15° E 22:00:07 10° NE visible
26 Apr 8.8 00:37:02 42° SSW 01:38:21 87° SE 03:11:28 10° NE visible
26 Apr 8.6 05:28:09 10° W 07:31:30 69° NNE 07:51:47 10° ESE visible
26 Apr 8.6 21:44:23 10° SSE 22:35:53 45° ESE 00:22:24 10° NE visible
27 Apr 9.2 02:20:48 15° WSW 04:18:32 69° NNW 05:12:39 10° ENE visible
27 Apr 8.7 23:33:55 10° SSW 00:47:48 79° SE 02:28:42 10° NE visible
28 Apr 8.8 04:35:35 10° W 06:46:20 66° N 07:11:02 10° E visible
28 Apr 8.6 21:06:29 10° SSE 21:51:57 38° ESE 23:36:53 10° NE visible
29 Apr 9.0 01:32:31 10° SW 03:24:44 73° NNW 04:30:46 10° ENE visible
29 Apr 8.7 22:53:19 10° SSW 23:58:52 71° ESE 01:45:22 10° NE visible
30 Apr 9.0 03:45:32 10° W 05:59:29 65° N 06:29:55 10° E visible
30 Apr 8.6 20:29:43 10° SE 21:08:41 30° ESE 22:49:56 10° NE visible
